User: anonymous   Login
Location: Goheenville
(40.9070°N, 79.3720°W)
Time: 06:47:16
(UTC-05:00)
Language:

NOAA 11 - Orbit

View from above orbital plane
View from above orbital plane
View from above satellite
View from above satellite

Ground track
Ground track

The orbit data is extracted from the following two-line orbital elements,

1 19531U 88089A   17057.33346437  .00000018  00000-0  30862-4 0  9997
2 19531  98.5671 120.2652 0011112   2.4215 357.7011 14.15203784467078
Epoch (UTC): 26 February 2017 08:00:11
Eccentricity: 0.0011112
inclination: 98.5671°
perigee height: 833 km
apogee height: 849 km
right ascension of ascending node: 120.2652°
argument of perigee: 2.4215°
revolutions per day: 14.15203784
mean anomaly at epoch: 357.7011°
orbit number at epoch: 46707

The dashed part of the orbit path shows where the satellite is in the earth's shadow,  

DLR